Estación de San Pedro
Ultimos registro cada 15 minutos 39
| N° | Estación | Fecha / Hora | Temperatura | Humedad | Lluvia | Velocidad | Dirección | Radiación | Presion |
| 39 | San Pedro | 09-05-2026 09:30 | 13,3 | 72,2 | 0 | 0 | 58 | 338,1 | 1001,1 |
| 38 | San Pedro | 09-05-2026 09:15 | 12,8 | 73,5 | 0 | 0 | 42 | 298,1 | 1001,2 |
| 37 | San Pedro | 09-05-2026 09:00 | 12,6 | 76,8 | 0 | 0 | 7 | 251,9 | 1001,3 |
| 36 | San Pedro | 09-05-2026 08:45 | 11,3 | 81,9 | 0 | 0,5 | 59 | 208,1 | 1001,3 |
| 35 | San Pedro | 09-05-2026 08:30 | 10,8 | 84 | 0 | 0,5 | 65 | 181,9 | 1001,2 |
| 34 | San Pedro | 09-05-2026 08:15 | 10,5 | 85,5 | 0 | 0,5 | 45 | 119,4 | 1001,1 |
| 33 | San Pedro | 09-05-2026 08:00 | 9,9 | 88,6 | 0 | 0 | 70 | 78,1 | 1001,3 |
| 32 | San Pedro | 09-05-2026 07:45 | 8,9 | 92 | 0 | 0 | 38 | 18,1 | 1001,3 |
| 31 | San Pedro | 09-05-2026 07:30 | 9,1 | 91,8 | 0 | 0 | 46 | 4,4 | 1001,2 |
| 30 | San Pedro | 09-05-2026 07:15 | 8,5 | 92,9 | 0 | 0,5 | 38 | 0,6 | 1001,2 |
| 29 | San Pedro | 09-05-2026 07:00 | 9,4 | 90,6 | 0 | 1 | 31 | 0,6 | 1001,2 |
| 28 | San Pedro | 09-05-2026 06:45 | 9,3 | 90,9 | 0 | 0,5 | 27 | 0,6 | 1001,2 |
| 27 | San Pedro | 09-05-2026 06:30 | 9,3 | 91,8 | 0 | 0 | 28 | 0,6 | 1001,4 |
| 26 | San Pedro | 09-05-2026 06:15 | 9,5 | 91,8 | 0 | 0 | 314 | 0,6 | 1001,2 |
| 25 | San Pedro | 09-05-2026 06:00 | 9,8 | 91,2 | 0 | 0 | 46 | 0,6 | 1001,2 |
| 24 | San Pedro | 09-05-2026 05:45 | 9,9 | 90,8 | 0 | 1 | 59 | 0,6 | 1001,2 |
| 23 | San Pedro | 09-05-2026 05:30 | 9,7 | 91,2 | 0 | 1 | 65 | 0,6 | 1001,1 |
| 22 | San Pedro | 09-05-2026 05:15 | 9,3 | 91,9 | 0 | 0,5 | 76 | 0,6 | 1001 |
| 21 | San Pedro | 09-05-2026 05:00 | 9,4 | 91,4 | 0 | 0 | 58 | 0,6 | 1001,1 |
| 20 | San Pedro | 09-05-2026 04:45 | 9,3 | 91,9 | 0 | 0 | 45 | 0,6 | 1001,1 |
| 19 | San Pedro | 09-05-2026 04:30 | 9,8 | 89,9 | 0 | 0,5 | 41 | 0,6 | 1001,2 |
| 18 | San Pedro | 09-05-2026 04:15 | 9,9 | 89 | 0 | 0,5 | 65 | 0,6 | 1001,3 |
| 17 | San Pedro | 09-05-2026 04:00 | 10,4 | 87,5 | 0 | 1 | 324 | 0,6 | 1001,3 |
| 16 | San Pedro | 09-05-2026 03:45 | 10 | 90,2 | 0 | 0 | 14 | 0,6 | 1001,1 |
| 15 | San Pedro | 09-05-2026 03:30 | 9,4 | 91,3 | 0 | 0 | 358 | 0,6 | 1001,3 |
| 14 | San Pedro | 09-05-2026 03:15 | 10 | 89,6 | 0 | 0,5 | 351 | 0,6 | 1001,2 |
| 13 | San Pedro | 09-05-2026 03:00 | 10,5 | 87,5 | 0 | 0,5 | 29 | 0,6 | 1001,4 |
| 12 | San Pedro | 09-05-2026 02:45 | 10,4 | 88,7 | 0 | 0,5 | 73 | 0,6 | 1001,6 |
| 11 | San Pedro | 09-05-2026 02:30 | 10,5 | 88,2 | 0 | 0 | 44 | 0,6 | 1001,7 |
| 10 | San Pedro | 09-05-2026 02:15 | 10,4 | 88,9 | 0 | 0,5 | 69 | 0,6 | 1001,8 |
| 9 | San Pedro | 09-05-2026 02:00 | 10,4 | 89,4 | 0 | 0,5 | 60 | 0,6 | 1001,7 |
| 8 | San Pedro | 09-05-2026 01:45 | 8,9 | 94,8 | 0 | 0 | 24 | 0,6 | 1001,6 |
| 7 | San Pedro | 09-05-2026 01:30 | 9,6 | 92 | 0 | 0 | 268 | 0,6 | 1001,7 |
| 6 | San Pedro | 09-05-2026 01:15 | 10,8 | 88,2 | 0 | 0,5 | 52 | 0,6 | 1001,8 |
| 5 | San Pedro | 09-05-2026 01:00 | 10,5 | 91,7 | 0 | 0 | 13 | 0,6 | 1001,8 |
| 4 | San Pedro | 09-05-2026 00:45 | 8,8 | 93,6 | 0 | 0 | 357 | 0,6 | 1001,8 |
| 3 | San Pedro | 09-05-2026 00:30 | 9,8 | 88,9 | 0 | 0 | 87 | 0,6 | 1001,9 |
| 2 | San Pedro | 09-05-2026 00:15 | 10,2 | 90,5 | 0 | 0 | 95 | 0,6 | 1001,9 |
| 1 | San Pedro | 09-05-2026 00:00 | 10,7 | 89,4 | 0 | 0 | 326 | 0,6 | 1002 |